STARLINK-4568, 53622

Orbit data source: Space-Track

STARLINK-4568, 53622 is a payload satellite owned by SpaceX/Seattle (US) in LEO that was launched on Sun, 28 Aug 2022 UTC via an FALCON 9 launch vehicle from the Air Force Eastern Test Range (AFETR). Payload-class satellites include a variety of spacecraft equipped with specific instruments for various scientific and technological missions. These include communications satellites like Starlink; space stations such as the ISS; scientific satellites like the Hubble; Earth observation satellites from companies like Planet Labs, Umbra, and HawkEye 360; GPS; miniature CubeSats for education and research; and military/defense satellites.

Loading next visibility...
Identifier
53622, 2022-104AL
Orbit
LEO
Country
Flag of USUS
Related business
Manufacturer
SpaceX/Seattle
Mission
Operational Commercial Communications
Bus & Motor
STARLINK, Unknown motor
Mass
300 kg wet, ~290 kg dry
Launch date (UTC)
2022-08-28 (4 years ago)
Launch vehicle
FALCON 9
Launch site
Air Force Eastern Test Range (AFETR)
Object type
Payload
Rocket body
Debris
Shape & HBR
Box + 1 Pan, 10.1 m
Radar Cross Section
13.562 m², Large (>1 m²)

Expand to show TLE details & history
Last TLE update: 11 hours ago

TLE from 11 hours ago
0 STARLINK-4568
1 53622U 22104AL  26126.80213932  .00001450  00000-0  10918-3 0  9994
2 53622  53.2178 332.8491 0001236 107.4546 252.6582 15.08828642204522
Epoch: 2026-05-06T19:15Z
TLE epoch observation values (Epoch: 2026-05-06T19:15:04.837Z)
Latitude
0.00004°
Longitude
179.42157°
Altitude
540.931 km
Speed
7.593 km/s
True Right ascension
22h 11m 23s
True Declination
0° 00' 00"
Sunlit
Object was in daylight at epoch
Visualization orbit readout
Latitude
Unknown
Longitude
Unknown
Altitude
Unknown
Speed
Unknown
Apparent Right ascension
Unknown
Apparent Declination
Unknown
Sunlit
N/A
Visualization observer readout
Local Sidereal Time
14:02:51
Azimuth
Unknown
Elevation
Unknown
Doppler factor
Unknown
Orbital elements
Apogee altitude
540.878 km
Perigee altitude
539.168 km
Semi-major axis
6,918.16 km
Eccentricity
0.00012
Inclination
53.2178°
RAAN
332.8491°
Arg. of periapsis
107.4546°
True anomaly
252.64468°
Mean anomaly
252.6582°
Eccentric anomaly
252.65144°
Mean motion
3.77187 °/min
Orbital period
95.44 mins
BSTAR
0.00010918
Loading maneuver chart data...
Computing Atmospheric mass density...
Loading historical data...
Loading historical data...
Loading historical data...
Loading historical data...
Loading historical data...
Loading historical data...
Loading historical data...

Documentation

Showing up to 5 results
|